FW6437 Weather Reports


time (UTC)temp
F
wind
direction
speed
knots
gust
knots
rain 1hr
in
rain 24hr
in
rain mn
in
humidity
%
barometer
mb
20260508043204 54 272 0.0 4.3 0.00 0.04 0.00 55 1014.6
20260508042705 54 305 0.9 5.2 0.00 0.04 0.00 56 1014.6
20260508042205 54 333 0.0 5.2 0.00 0.04 0.00 56 1014.5
20260508041705 54 332 0.9 5.2 0.00 0.04 0.00 56 1014.5
20260508041205 54 308 0.0 4.3 0.00 0.04 0.00 55 1014.5
20260508040704 54 316 0.9 4.3 0.00 0.04 0.00 55 1014.5
20260508040205 55 302 1.7 2.6 0.00 0.04 0.00 53 1014.3
20260508035705 55 322 0.9 5.2 0.00 0.04 0.04 53 1014.3
20260508035204 55 346 0.9 5.2 0.00 0.04 0.04 52 1014.3
20260508034704 55 319 1.7 6.1 0.00 0.04 0.04 52 1014.3
20260508034205 55 314 1.7 6.1 0.00 0.04 0.04 52 1014.2
20260508033204 56 332 4.3 7.8 0.00 0.04 0.04 52 1014.3
20260508032705 56 320 3.5 7.8 0.00 0.04 0.04 51 1014.2
20260508032204 56 2 2.6 7.8 0.00 0.04 0.04 51 1014.0
20260508031706 56 328 4.3 10.4 0.00 0.04 0.04 52 1013.9
20260508031205 56 351 5.2 10.4 0.00 0.04 0.04 51 1013.9
20260508030705 56 329 4.3 10.4 0.00 0.04 0.04 52 1013.9
20260508030205 56 328 6.1 10.4 0.00 0.04 0.04 50 1013.8
20260508025705 56 336 4.3 8.7 0.00 0.04 0.04 50 1013.8
20260508025204 56 345 4.3 7.8 0.00 0.05 0.04 52 1013.7
20260508024705 56 310 2.6 7.0 0.00 0.05 0.04 53 1013.7
20260508024205 56 333 4.3 7.0 0.00 0.05 0.04 53 1013.6
20260508023705 56 327 0.9 7.0 0.00 0.06 0.04 55 1013.6
20260508023205 56 306 0.0 4.3 0.00 0.06 0.04 56 1013.6
20260508022705 56 304 0.0 4.3 0.00 0.09 0.04 56 1013.5
20260508022204 56 306 0.9 5.2 0.00 0.10 0.04 57 1013.4
20260508021704 56 288 0.9 5.2 0.00 0.10 0.04 56 1013.4
20260508021204 56 290 1.7 5.2 0.00 0.10 0.04 56 1013.2
20260508020705 56 311 0.0 5.2 0.00 0.10 0.04 57 1013.2
20260508020206 57 337 1.7 5.2 0.00 0.10 0.04 56 1013.1
20260508015204 57 294 0.9 7.0 0.00 0.10 0.04 56 1012.8
20260508014704 57 309 1.7 6.1 0.00 0.10 0.04 56 1012.7
20260508014204 57 320 2.6 7.0 0.00 0.10 0.04 57 1012.6
20260508013704 57 330 2.6 7.0 0.00 0.10 0.04 56 1012.6
20260508013205 57 323 1.7 5.2 0.00 0.10 0.04 57 1012.5
20260508012206 57 311 0.9 2.6 0.00 0.10 0.04 55 1012.4
20260508011204 58 284 0.9 4.3 0.00 0.10 0.04 54 1012.2
20260508010704 58 328 0.9 6.1 0.00 0.10 0.04 52 1012.2
20260508005205 59 295 2.6 7.0 0.00 0.10 0.04 51 1011.9
20260508004705 59 313 2.6 6.1 0.00 0.10 0.04 51 1012.0
20260508004204 59 282 1.7 6.1 0.00 0.10 0.04 51 1012.0
20260508003704 59 299 2.6 7.0 0.00 0.10 0.04 50 1012.0
20260508003204 60 309 4.3 7.8 0.00 0.10 0.04 49 1011.9
20260508002704 60 322 4.3 7.8 0.00 0.10 0.04 48 1011.9
20260508002204 60 308 3.5 7.8 0.00 0.10 0.04 48 1011.8
20260508001705 61 296 4.3 7.8 0.00 0.10 0.04 47 1011.8
20260508001205 61 306 3.5 7.8 0.00 0.10 0.04 46 1011.8
20260507234705 63 308 6.1 13.9 0.00 0.10 0.04 43 1011.3
20260507234204 63 302 8.7 15.6 0.00 0.10 0.04 42 1011.2
20260507233705 63 307 7.8 15.6 0.00 0.10 0.04 43 1011.1
20260507233205 63 299 6.1 12.2 0.00 0.10 0.04 44 1011.1
20260507232705 64 284 5.2 13.0 0.00 0.10 0.04 43 1011.0
20260507232204 63 315 7.8 13.9 0.00 0.10 0.04 44 1010.9
20260507231704 64 301 7.8 13.9 0.00 0.10 0.04 43 1010.7
20260507231204 63 301 7.8 13.0 0.00 0.10 0.04 43 1010.8
20260507230704 64 297 7.8 15.6 0.00 0.10 0.04 44 1010.7
20260507230206 64 295 8.7 15.6 0.00 0.10 0.04 45 1010.7
20260507225704 64 290 8.7 15.6 0.00 0.10 0.04 43 1010.7
20260507224705 65 304 5.2 12.2 0.00 0.10 0.04 45 1010.6
20260507224204 65 298 7.8 17.4 0.00 0.10 0.04 44 1010.6
20260507223204 66 308 6.1 14.8 0.00 0.10 0.04 46 1010.5
20260507222704 65 300 9.6 14.8 0.00 0.10 0.04 47 1010.4
20260507222204 65 321 11.3 15.6 0.00 0.10 0.04 48 1010.5
20260507221704 65 302 8.7 15.6 0.00 0.10 0.04 49 1010.4
20260507221204 65 311 8.7 14.8 0.00 0.10 0.04 51 1010.3
20260507220705 65 284 8.7 14.8 0.00 0.10 0.04 72 1010.3
20260507220204 64 357 0.9 4.3 0.00 0.10 0.04 74 1010.2
20260507215705 65 13 0.9 6.1 0.00 0.10 0.04 75 1010.2
20260507215205 65 57 1.7 7.0 0.00 0.10 0.04 74 1010.0
20260507214705 65 159 4.3 7.8 0.00 0.10 0.04 76 1010.0
20260507214205 65 101 1.7 8.7 0.00 0.10 0.04 76 1010.1
20260507213705 65 40 1.7 8.7 0.00 0.10 0.04 78 1010.1
20260507213205 64 129 4.3 8.7 0.00 0.10 0.04 77 1010.1
20260507212205 63 146 1.7 7.0 0.00 0.10 0.04 75 1010.2
20260507211205 65 206 1.7 6.1 0.00 0.10 0.04 71 1010.2
20260507210705 64 212 1.7 6.1 0.00 0.10 0.04 72 1010.2
20260507210204 63 172 0.9 6.1 0.00 0.10 0.04 77 1010.1
20260507204705 64 220 2.6 7.0 0.00 0.10 0.04 80 1010.0
20260507204204 63 241 0.9 7.0 0.00 0.10 0.04 79 1010.0
20260507203704 64 172 1.7 7.0 0.00 0.10 0.04 82 1010.1
20260507202205 63 196 2.6 7.0 0.00 0.10 0.04 86 1010.1
20260507201205 61 113 2.6 6.1 0.00 0.10 0.04 92 1010.1
20260507200704 62 156 0.9 5.2 0.00 0.10 0.04 96 1010.3
20260507200205 61 120 1.7 6.1 0.00 0.10 0.04 96 1010.4
20260507195704 60 180 2.6 6.1 0.01 0.10 0.04 97 1010.5
20260507195205 59 151 1.7 5.2 0.02 0.10 0.04 97 1010.7
20260507194705 59 192 1.7 5.2 0.03 0.10 0.04 99 1010.8
20260507193705 59 191 0.9 2.6 0.03 0.10 0.04 98 1011.1
20260507193204 58 208 0.0 2.6 0.03 0.10 0.04 97 1011.2
20260507192704 58 291 0.0 1.7 0.03 0.10 0.04 98 1011.3
20260507192204 58 291 0.0 0.0 0.03 0.10 0.04 98 1011.2
20260507191705 58 291 0.0 0.0 0.04 0.10 0.04 99 1011.1
20260507191204 57 291 0.0 0.0 0.04 0.10 0.04 98 1011.2
20260507190204 59 291 0.0 0.0 0.04 0.10 0.04 97 1011.5
20260507185204 58 291 0.0 0.0 0.02 0.08 0.02 91 1011.8
20260507184704 58 291 0.0 0.0 0.01 0.07 0.01 94 1011.5
20260507184204 58 291 0.0 0.0 0.01 0.07 0.01 94 1011.7
20260507183704 57 291 0.0 0.0 0.01 0.07 0.01 93 1011.7
20260507183205 57 291 0.0 0.0 0.01 0.07 0.01 94 1011.7
20260507181705 58 291 0.0 4.3 0.00 0.06 0.00 87 1011.7
20260507181204 58 291 0.9 4.3 0.00 0.06 0.00 88 1011.7
20260507180204 58 357 0.0 5.2 0.00 0.06 0.00 89 1011.8
20260507175704 58 357 0.0 5.2 0.00 0.06 0.00 88 1011.7
20260507175205 58 357 1.7 5.2 0.00 0.06 0.00 88 1011.5
20260507174704 58 351 0.9 4.3 0.00 0.06 0.00 89 1011.7
20260507174204 58 0 0.0 4.3 0.00 0.06 0.00 92 1011.5
20260507173704 58 0 0.9 4.3 0.00 0.06 0.00 92 1011.8
20260507173205 58 285 1.7 5.2 0.00 0.06 0.00 92 1011.8
20260507172705 58 337 2.6 5.2 0.00 0.06 0.00 92 1011.5
20260507172205 58 354 0.9 5.2 0.00 0.06 0.00 90 1011.8
20260507171705 58 327 0.9 5.2 0.00 0.06 0.00 88 1011.9
20260507170704 58 16 2.6 6.1 0.00 0.06 0.00 87 1011.8
20260507170204 58 326 2.6 10.4 0.00 0.06 0.00 87 1011.9
20260507165705 58 34 0.9 10.4 0.00 0.06 0.00 86 1011.8
20260507165204 58 0 3.5 10.4 0.00 0.06 0.00 86 1012.0
20260507164705 58 45 0.9 8.7 0.00 0.06 0.00 86 1011.9
20260507164205 59 2 5.2 8.7 0.00 0.06 0.00 86 1011.9
20260507163705 59 35 0.9 10.4 0.00 0.06 0.00 86 1011.7
20260507163204 59 335 4.3 10.4 0.00 0.06 0.00 85 1011.7
20260507162704 58 317 6.1 10.4 0.00 0.06 0.00 84 1011.8
20260507162205 60 287 0.0 7.0 0.00 0.06 0.00 84 1011.8
20260507161705 60 352 1.7 10.4 0.00 0.06 0.00 84 1011.8
20260507161204 59 333 4.3 10.4 0.00 0.06 0.00 84 1011.7
20260507160705 59 334 3.5 10.4 0.00 0.06 0.00 84 1011.8
20260507160205 59 354 4.3 7.0 0.00 0.06 0.00 85 1011.9
20260507155705 59 343 3.5 7.8 0.00 0.06 0.00 85 1012.0
20260507155204 59 320 5.2 10.4 0.00 0.06 0.00 85 1012.0
20260507154704 59 0 1.7 10.4 0.00 0.06 0.00 85 1012.3
20260507154205 59 347 2.6 7.8 0.00 0.06 0.00 85 1012.3
20260507153705 59 343 3.5 7.8 0.00 0.06 0.00 85 1012.2
20260507153205 60 352 4.3 7.8 0.00 0.06 0.00 85 1012.2
20260507152705 60 323 0.9 7.8 0.00 0.06 0.00 86 1012.2
20260507151705 59 346 3.5 10.4 0.00 0.06 0.00 85 1012.1
20260507151205 60 11 0.9 7.8 0.00 0.06 0.00 85 1012.1
20260507150705 60 1 1.7 6.1 0.00 0.06 0.00 84 1012.0
20260507150204 60 37 2.6 7.0 0.00 0.06 0.00 84 1012.0
20260507145704 60 55 0.9 7.0 0.00 0.06 0.00 84 1011.9
20260507145205 60 349 0.9 6.1 0.00 0.06 0.00 84 1012.0
20260507144704 60 343 1.7 7.8 0.00 0.06 0.00 83 1012.0
20260507144204 60 302 2.6 7.8 0.00 0.06 0.00 84 1011.9
20260507143704 60 329 4.3 7.8 0.00 0.06 0.00 84 1011.9
20260507143204 59 8 2.6 8.7 0.00 0.06 0.00 84 1011.9
20260507142704 59 327 4.3 10.4 0.00 0.06 0.00 84 1011.9
20260507142205 59 354 5.2 11.3 0.00 0.06 0.00 83 1011.9
20260507141704 60 6 3.5 11.3 0.00 0.06 0.00 84 1012.1
20260507141205 60 356 5.2 12.2 0.00 0.06 0.00 84 1012.0
20260507140705 60 325 5.2 12.2 0.00 0.06 0.00 83 1011.8
20260507140204 61 350 2.6 7.8 0.00 0.06 0.00 86 1011.4
20260507135704 61 4 2.6 7.0 0.00 0.06 0.00 85 1011.5
20260507134704 61 27 0.9 10.4 0.00 0.06 0.00 86 1012.1
20260507134204 61 7 4.3 11.3 0.00 0.06 0.00 87 1012.2
20260507133706 61 292 6.1 11.3 0.00 0.06 0.00 87 1012.1
20260507133205 60 337 6.1 11.3 0.00 0.07 0.00 87 1012.0
20260507132705 61 336 4.3 7.8 0.00 0.07 0.00 88 1012.0
20260507132204 61 323 2.6 10.4 0.00 0.07 0.00 89 1012.0
20260507131705 60 322 7.0 10.4 0.00 0.07 0.00 89 1012.2
20260507131205 60 347 7.0 10.4 0.00 0.07 0.00 89 1012.2
20260507130704 61 316 5.2 8.7 0.00 0.07 0.00 90 1012.1
20260507130205 61 316 4.3 7.0 0.00 0.07 0.00 90 1011.9
20260507125704 60 332 4.3 7.0 0.00 0.07 0.00 90 1012.0
20260507125204 61 357 0.0 10.4 0.00 0.07 0.00 92 1011.9
20260507124705 60 290 2.6 10.4 0.00 0.07 0.00 91 1012.0
20260507124204 60 326 5.2 10.4 0.00 0.07 0.00 92 1012.0
20260507123705 60 5 5.2 8.7 0.00 0.07 0.00 91 1012.0
20260507123204 60 331 4.3 8.7 0.00 0.07 0.00 92 1012.1
20260507121205 60 21 1.7 11.3 0.00 0.07 0.00 94 1011.8
20260507120205 60 350 3.5 12.2 0.00 0.07 0.00 94 1011.9
20260507115706 60 355 5.2 8.7 0.00 0.07 0.00 94 1011.9
20260507115205 60 17 4.3 7.8 0.00 0.07 0.00 95 1011.9
20260507114205 60 2 4.3 7.0 0.00 0.07 0.00 95 1011.8
20260507113206 60 4 1.7 6.1 0.00 0.07 0.00 96 1011.8
20260507112705 60 353 0.0 6.1 0.00 0.07 0.00 96 1011.7
20260507112205 60 325 3.5 6.1 0.00 0.07 0.00 96 1011.7
20260507111705 60 330 1.7 6.1 0.00 0.07 0.00 96 1011.4
20260507111205 60 308 0.9 2.6 0.00 0.07 0.00 96 1011.3
20260507110705 60 240 0.0 4.3 0.00 0.07 0.00 96 1011.2
20260507110205 60 240 0.0 7.0 0.00 0.07 0.00 96 1011.4
20260507105704 60 296 4.3 7.0 0.00 0.07 0.00 96 1011.3
20260507105205 60 327 2.6 7.0 0.00 0.07 0.00 96 1011.2
20260507104705 60 320 2.6 7.8 0.00 0.07 0.00 97 1011.2
20260507104206 60 317 4.3 7.8 0.00 0.07 0.00 97 1011.0
20260507103705 60 346 1.7 6.1 0.00 0.07 0.00 98 1011.0
20260507103206 60 337 2.6 7.8 0.00 0.07 0.00 98 1011.1
20260507100704 61 313 0.9 5.2 0.00 0.07 0.00 99 1011.0
20260507100204 60 343 2.6 5.2 0.00 0.07 0.00 99 1011.0
20260507095705 60 355 1.7 6.1 0.00 0.07 0.00 99 1010.8
20260507095205 60 328 4.3 7.8 0.00 0.07 0.00 99 1011.0
20260507094705 60 304 2.6 7.8 0.00 0.07 0.00 99 1011.3
20260507094204 61 328 1.7 7.8 0.00 0.07 0.00 99 1010.9
20260507093705 61 335 1.7 6.1 0.00 0.07 0.00 99 1010.9
20260507093204 60 334 0.9 7.8 0.00 0.07 0.00 99 1011.2
20260507092704 61 299 2.6 7.8 0.00 0.07 0.00 99 1011.3
20260507092204 61 328 2.6 7.8 0.00 0.07 0.00 99 1011.4
20260507091704 61 325 2.6 7.8 0.00 0.07 0.00 99 1011.1
20260507091204 61 332 5.2 7.8 0.00 0.07 0.00 99 1011.0
20260507090705 61 359 2.6 6.1 0.00 0.07 0.00 99 1010.8
20260507090205 61 53 0.9 6.1 0.00 0.07 0.00 99 1010.3
20260507085704 62 0 0.0 7.8 0.00 0.07 0.00 99 1010.8
20260507085204 62 339 2.6 7.8 0.00 0.07 0.00 99 1010.8
20260507084704 62 1 2.6 7.8 0.00 0.07 0.00 99 1010.8
20260507084204 62 308 2.6 7.8 0.00 0.07 0.00 99 1010.9
20260507083705 62 274 0.9 4.3 0.00 0.07 0.00 99 1011.3
20260507082705 62 246 0.0 0.0 0.00 0.07 0.00 99 1011.1
20260507082204 62 246 0.0 0.0 0.00 0.07 0.00 99 1011.0
20260507081705 61 246 0.0 0.0 0.00 0.07 0.00 99 1011.0
20260507081205 62 246 0.0 0.0 0.00 0.07 0.00 99 1011.1
20260507075704 62 13 0.0 4.3 0.00 0.07 0.00 99 1011.1
20260507075205 62 1 0.9 4.3 0.00 0.07 0.00 99 1011.3
20260507074705 62 250 0.0 2.6 0.00 0.07 0.00 99 1011.3
20260507074204 62 248 0.0 0.0 0.00 0.07 0.00 99 1011.5
20260507073706 62 248 0.0 2.6 0.00 0.07 0.00 99 1011.1
20260507073204 63 248 0.0 6.1 0.00 0.07 0.00 99 1011.1
20260507072704 63 291 0.0 6.1 0.00 0.07 0.00 99 1011.2
20260507071206 62 320 2.6 7.0 0.00 0.07 0.00 99 1011.0
20260507070205 62 344 0.0 6.1 0.00 0.07 0.00 99 1011.0
20260507065205 63 124 0.0 1.7 0.00 0.07 0.00 99 1010.9
20260507064704 63 124 0.0 0.0 0.00 0.07 0.00 99 1010.7
20260507064206 63 124 0.0 0.0 0.00 0.07 0.00 99 1011.2
20260507062704 63 124 0.0 0.0 0.00 0.07 0.00 99 1010.9
20260507062204 63 124 0.0 0.0 0.00 0.07 0.00 99 1011.0
20260507061704 63 124 0.0 0.0 0.00 0.07 0.00 99 1010.8
20260507060704 63 124 0.0 0.0 0.00 0.07 0.00 99 1010.8
20260507055705 63 124 0.0 0.0 0.00 0.07 0.00 99 1011.3
20260507055205 63 124 0.0 0.0 0.00 0.07 0.00 99 1011.2
20260507054205 63 124 0.0 0.0 0.00 0.07 0.00 99 1011.4
20260507053205 63 124 0.0 0.0 0.00 0.07 0.00 99 1011.8
20260507052706 63 124 0.0 0.0 0.00 0.07 0.00 99 1011.9
20260507051704 63 124 0.0 4.3 0.00 0.07 0.00 99 1011.7
20260507051205 63 124 0.9 5.2 0.00 0.07 0.00 99 1011.3
20260507050204 63 159 0.0 2.6 0.00 0.07 0.00 99 1011.4
20260507045704 63 152 0.0 0.0 0.00 0.07 0.00 99 1011.1
20260507045204 63 152 0.0 2.6 0.00 0.07 0.00 99 1011.2
20260507044704 63 152 0.0 2.6 0.00 0.07 0.00 99 1011.0
20260507044205 64 166 1.7 2.6 0.00 0.07 0.00 99 1010.9